Location: El Azufral
(10.3513°N, 67.1528°W)
Time: 19:39:24
(UTC+00:00)

Cosmos 2251 Rocket - Pass Details

Date: 13 June 2024
Orbit: 762 x 790 km, 74.0° (Epoch: 24 July)

Event Time Altitude Azimuth Distance (km) Brightness Sun altitude
Rises 23:38:22 0° 191° (S) 3,218 6.6 -11.5°
Reaches altitude 10° 23:40:43 10° 190° (S) 2,295 5.8 -12.0°
Maximum altitude 23:45:56 83° 103° (ESE) 776 3.4 -13.1°
Drops below altitude 10° 23:51:11 10° 15° (NNE) 2,310 6.1 -14.3°
Sets 23:53:33 0° 14° (NNE) 3,241 6.9 -14.8°
